STARLINK-3804, 52270

Orbit data source: Space-Track

STARLINK-3804, 52270 is a payload satellite owned by SpaceX/Seattle (US) in LEO that was launched on Thu, 21 Apr 2022 UTC via an FALCON 9 launch vehicle from the Air Force Eastern Test Range (AFETR). Payload-class satellites include a variety of spacecraft equipped with specific instruments for various scientific and technological missions. These include communications satellites like Starlink; space stations such as the ISS; scientific satellites like the Hubble; Earth observation satellites from companies like Planet Labs, Umbra, and HawkEye 360; GPS; miniature CubeSats for education and research; and military/defense satellites.

Loading next visibility...
Identifier
52270, 2022-041K
Orbit
LEO
Country
Flag of USUS
Related business
Manufacturer
SpaceX/Seattle
Mission
Operational Commercial Communications
Bus & Motor
STARLINK, Unknown motor
Mass
297 kg wet, ~275 kg dry
Launch date (UTC)
2022-04-21 (4 years ago)
Launch vehicle
FALCON 9
Launch site
Air Force Eastern Test Range (AFETR)
Object type
Payload
Rocket body
Debris
Shape & HBR
Box + 1 Pan, 10.1 m
Radar Cross Section
11.087 m², Large (>1 m²)

Expand to show TLE details & history
Last TLE update: 15 hours ago

TLE from 15 hours ago
0 STARLINK-3804
1 52270U 22041K   26129.89199617  .00000017  00000-0  19171-4 0  9996
2 52270  53.2173 194.4037 0001045  77.0468 283.0641 15.08840050223607
Epoch: 2026-05-09T21:24Z
TLE epoch observation values (Epoch: 2026-05-09T21:24:28.469Z)
Latitude
0.00001°
Longitude
5.58217°
Altitude
540.477 km
Speed
7.593 km/s
True Right ascension
12h 57m 36s
True Declination
0° 00' 00"
Sunlit
Object was in full shadow at epoch
Visualization orbit readout
Latitude
Unknown
Longitude
Unknown
Altitude
Unknown
Speed
Unknown
Apparent Right ascension
Unknown
Apparent Declination
Unknown
Sunlit
N/A
Visualization observer readout
Local Sidereal Time
20:35:28
Azimuth
Unknown
Elevation
Unknown
Doppler factor
Unknown
Orbital elements
Apogee altitude
540.711 km
Perigee altitude
539.265 km
Semi-major axis
6,918.125 km
Eccentricity
0.0001
Inclination
53.2173°
RAAN
194.4037°
Arg. of periapsis
77.0468°
True anomaly
283.05243°
Mean anomaly
283.0641°
Eccentric anomaly
283.05827°
Mean motion
3.7719 °/min
Orbital period
95.44 mins
BSTAR
0.000019171
Loading maneuver chart data...
Computing Atmospheric mass density...
Loading historical data...
Loading historical data...
Loading historical data...
Loading historical data...
Loading historical data...
Loading historical data...
Loading historical data...

Documentation

Showing up to 5 results
|